Location: Island Grove Observatory.
(44.2333°N, 79.4500°W)
Time: 12:47:33
(UTC-05:00)

N. Korean satellite - Pass Details

Date: 28 November 2021
Orbit: 447 x 491 km, 97.3° (Epoch: 23 January)

Event Time Altitude Azimuth Distance (km) Brightness Sun altitude
Rises 05:50:52 0° 8° (N) 2,482 10.1 -17.3°
Reaches altitude 10° 05:52:57 10° 4° (N) 1,597 9.1 -17.0°
Maximum altitude 05:56:18 56° 285° (WNW) 540 6.4 -16.4°
Drops below altitude 10° 05:59:36 10° 207° (SSW) 1,571 9.0 -15.8°
Sets 06:01:37 0° 203° (SSW) 2,435 10.0 -15.5°
